TimeCDT,TemperatureF,Dew PointF,Humidity,Sea Level PressureIn,VisibilityMPH,Wind Direction,Wind SpeedMPH,Gust SpeedMPH,PrecipitationIn,Events,Conditions,WindDirDegrees,DateUTC
12:53 AM,64.9,62.1,90,30.00,10.0,Calm,Calm,-,N/A,,Clear,0,2013-09-27 05:53:00
1:51 AM,62.6,60.8,94,30.00,2.0,Calm,Calm,-,N/A,,Clear,0,2013-09-27 06:51:00
1:53 AM,63.0,60.1,90,29.99,2.5,Calm,Calm,-,N/A,,Clear,0,2013-09-27 06:53:00
2:01 AM,62.6,60.8,94,30.00,3.0,Calm,Calm,-,N/A,,Clear,0,2013-09-27 07:01:00
2:15 AM,62.6,60.8,94,30.00,1.8,Calm,Calm,-,N/A,,Clear,0,2013-09-27 07:15:00
2:22 AM,62.6,60.8,94,30.00,3.0,Calm,Calm,-,N/A,,Clear,0,2013-09-27 07:22:00
2:53 AM,61.0,59.0,93,29.99,3.0,Calm,Calm,-,N/A,,Clear,0,2013-09-27 07:53:00
3:22 AM,60.8,59.0,94,30.00,2.0,Calm,Calm,-,N/A,,Partly Cloudy,0,2013-09-27 08:22:00
3:24 AM,60.8,59.0,94,30.00,1.2,Calm,Calm,-,N/A,,Partly Cloudy,0,2013-09-27 08:24:00
3:27 AM,60.8,59.0,94,30.00,0.8,Calm,Calm,-,N/A,,Mist,0,2013-09-27 08:27:00
3:34 AM,60.8,59.0,94,30.00,1.2,Calm,Calm,-,N/A,,Partly Cloudy,0,2013-09-27 08:34:00
3:36 AM,60.8,59.0,94,30.00,2.0,Calm,Calm,-,N/A,,Partly Cloudy,0,2013-09-27 08:36:00
3:44 AM,60.8,59.0,94,30.00,5.0,Calm,Calm,-,N/A,,Partly Cloudy,0,2013-09-27 08:44:00
3:53 AM,61.0,59.0,93,29.99,6.0,Calm,Calm,-,N/A,,Clear,0,2013-09-27 08:53:00
4:10 AM,60.8,59.0,94,30.01,6.0,Calm,Calm,-,N/A,,Scattered Clouds,0,2013-09-27 09:10:00
4:20 AM,60.8,57.2,88,30.01,4.0,Calm,Calm,-,N/A,,Mostly Cloudy,0,2013-09-27 09:20:00
4:26 AM,60.8,57.2,88,30.01,1.8,Calm,Calm,-,N/A,,Mostly Cloudy,0,2013-09-27 09:26:00
4:28 AM,60.8,57.2,88,30.01,1.2,Calm,Calm,-,N/A,,Mostly Cloudy,0,2013-09-27 09:28:00
4:30 AM,60.8,57.2,88,30.01,0.8,Calm,Calm,-,N/A,,Mist,0,2013-09-27 09:30:00
4:39 AM,60.8,57.2,88,30.01,0.5,Calm,Calm,-,N/A,Fog,Fog,0,2013-09-27 09:39:00
4:47 AM,60.8,57.2,88,30.01,1.0,Calm,Calm,-,N/A,,Mist,0,2013-09-27 09:47:00
4:50 AM,60.8,57.2,88,30.01,1.5,Calm,Calm,-,N/A,,Mostly Cloudy,0,2013-09-27 09:50:00
4:53 AM,61.0,57.9,90,30.01,2.5,Calm,Calm,-,N/A,,Mostly Cloudy,0,2013-09-27 09:53:00
4:56 AM,60.8,57.2,88,30.02,3.0,Calm,Calm,-,N/A,,Scattered Clouds,0,2013-09-27 09:56:00
5:53 AM,60.1,57.9,93,30.03,10.0,Calm,Calm,-,N/A,,Clear,0,2013-09-27 10:53:00
6:53 AM,60.1,57.0,90,30.05,6.0,Calm,Calm,-,N/A,,Clear,0,2013-09-27 11:53:00
7:53 AM,64.9,61.0,87,30.07,7.0,Calm,Calm,-,N/A,,Clear,0,2013-09-27 12:53:00
8:53 AM,70.0,62.1,76,30.08,10.0,ENE,8.1,-,N/A,,Clear,60,2013-09-27 13:53:00
9:53 AM,75.0,62.1,64,30.10,10.0,East,5.8,-,N/A,,Clear,80,2013-09-27 14:53:00
10:53 AM,79.0,60.1,52,30.09,10.0,East,10.4,-,N/A,,Clear,90,2013-09-27 15:53:00
11:53 AM,80.1,59.0,48,30.08,10.0,East,5.8,-,N/A,,Clear,80,2013-09-27 16:53:00
12:53 PM,81.0,55.9,42,30.05,10.0,NE,9.2,17.3,N/A,,Clear,50,2013-09-27 17:53:00
1:53 PM,82.0,55.0,39,30.02,10.0,Variable,4.6,-,N/A,,Clear,0,2013-09-27 18:53:00
2:53 PM,82.9,54.0,37,30.02,10.0,NE,10.4,-,N/A,,Clear,50,2013-09-27 19:53:00
3:53 PM,82.0,55.9,41,30.02,10.0,East,9.2,-,N/A,,Clear,80,2013-09-27 20:53:00
4:53 PM,81.0,57.0,44,30.02,10.0,ENE,6.9,-,N/A,,Clear,60,2013-09-27 21:53:00
5:53 PM,78.1,57.0,48,30.02,10.0,ENE,3.5,-,N/A,,Clear,60,2013-09-27 22:53:00
6:53 PM,70.0,61.0,73,30.04,10.0,Calm,Calm,-,N/A,,Clear,0,2013-09-27 23:53:00
7:53 PM,66.9,61.0,81,30.04,10.0,Calm,Calm,-,N/A,,Clear,0,2013-09-28 00:53:00
8:53 PM,64.0,60.1,87,30.06,10.0,Calm,Calm,-,N/A,,Clear,0,2013-09-28 01:53:00
9:53 PM,64.9,61.0,87,30.08,10.0,Calm,Calm,-,N/A,,Clear,0,2013-09-28 02:53:00
10:53 PM,64.0,59.0,84,30.09,10.0,Calm,Calm,-,N/A,,Clear,0,2013-09-28 03:53:00
11:53 PM,63.0,57.9,84,30.08,10.0,Calm,Calm,-,N/A,,Clear,0,2013-09-28 04:53:00